OV1-10 R/B, 2621

Orbit data source: Space-Track

OV1-10 R/B, 2621 is space debris in LEO originally from a launch on Sun, 11 Dec 1966 UTC launched from the Air Force Western Test Range (AFWTR). Debris objects in space refer to the collection of defunct objects orbiting the Earth. Examples of debris include non-operational satellites, rocket bodies, and fragments generated from explosions, collisions, or faulty payload assembly.

Loading next visibility...
Identifier
2621, 1966-111C
Orbit
LEO
Last TLE update
11 hours ago
Origin
Manufacturer
ABL
Mission
Spacecraft
Bus & Motor
ALTAIR, Unknown motor
Mass
125 kg wet, 125 kg dry
Launch date (UTC)
1966-12-11 (59 years ago)
Launch vehicle
Unknown
Launch site
Air Force Western Test Range (AFWTR)
Object type
Payload
Rocket body
Debris
Shape & HBR
Cyl, 2.1 m
Radar Cross Section
1.347 m², Large (>1 m²)

Expand to show TLE details & history

TLE from 11 hours ago
0 OV1-10 R/B
1 02621U 66111C   25181.91290025  .00000422  00000-0  49380-4 0  9997
2 02621  93.4032  54.9692 0054826 236.1126 123.4876 14.84787384122229
Epoch: 2025-06-30T21:54Z
TLE epoch observation values (Epoch: 2025-06-30T21:54:34.581Z)
Latitude
-0.00005°
Longitude
167.10922°
Altitude
638.681 km
Speed
7.527 km/s
True Right ascension
03h 39m 52s
True Declination
0° 00' 00"
Sunlit
Object was in daylight at epoch
Visualization orbit readout
Latitude
14.081°
Longitude
166.46224°
Altitude
645.799 km
Speed
7.52 km/s
Apparent Right ascension
05h 45m 33s
Apparent Declination
-14° 38' 42"
Sunlit
Object is in daylight
Visualization observer readout
Local Sidereal Time
20:55:58
Azimuth
72.546° E
Elevation
-41.495°
Doppler factor
1
Orbital elements
Apogee altitude
649.462 km
Perigee altitude
572.823 km
Semi-major axis
6,989.28 km
Eccentricity
0.00548
Inclination
93.4032°
RAAN
54.9692°
Arg. of periapsis
236.1126°
True anomaly
Unknown
Mean anomaly
123.4876°
Eccentric anomaly
Unknown
Mean motion
3.71445 °/min
Orbital period
96.92 mins
BSTAR
0.00004938
Loading maneuver chart data...
Loading SW <> Apogee altitude chart data...
Loading historical data...
Loading historical data...
Loading historical data...
Loading historical data...
Loading historical data...
Loading historical data...
Loading historical data...
Other satellites on launch #111 in the year 1966 (1966-12-11 UTC)

OV1-10 R/B Visibility forecast

Observer location: undefined°, undefined°

Span
Click to sort rows by Start time (UTC) header in descending order
Start Az.
Max El. time (UTC)
Max El. Az.
Max El.
End time (UTC)
End Az.
8 mins2025-07-01 15:48:43.295Z174.107° S2025-07-01 15:52:43.295Z203.8° SW44.563°2025-07-01 15:56:43.295Z351.723° N
6 mins2025-07-02 03:36:43.295Z31.71° NE2025-07-02 03:39:43.295Z96.464° ESE31.039°2025-07-02 03:42:43.295Z154.817° SSE
|